GSAT0218 (GALILEO 22) (43058 NORAD) Tracking and Keplerian Element Data

This shows tracking and keplerian element data for the satellite.

Feedback or suggestion? Click here.




ElementValue
Catalog43058
NameGSAT0218 (GALILEO 22)
Epoch Orbit2979
Epoch Day268.87528248
Epoch Year2022
RAAN258.9551
Inclination55.6831
Eccentricity0.0006218
Argument of Perigee275.419
Mean Anonmoly84.4973
Mean Motion1.70474036
Decay Rate3.3E-07
L11 43058U 17079D 22268.87528248 .00000033 00000+0 00000+0 0 9992
L22 43058 55.6831 258.9551 0006218 275.4190 84.4973 1.70474036 29794

Live tracking and technical data element details for GSAT0218 (GALILEO 22) (NORAD 43058). GSAT0218 (GALILEO 22) can be tracked NOW for your location showing map with azimuth and elevation plus other details from your city location.

Track the satellite on the map from your city or location and see movement details for azimuth, elevation, latitude, longitude, range, height, and movement on the map or in text.







IsCatalogInMostPopularTable: catalog: 43058, numindb: 711
Update: records affected: 1



GetName: 43058 GSAT0218 (GALILEO 22)

Hit Count: updated at: Fri, 30 Sep 2022 02:35:36 GMT